[[{"header":{"parameterUnit":"m.s-1","parameterCategory":1,"la1":30.2991,"la2":30.254,"lo1":-89.0895,"lo2":-89.0444,"dy":0.0017,"dx":0.0017,"nx":28,"ny":28,"refTime":"2025-01-17T03:00:00:Z","depth":0,"parameterNumber":2,"parameterNumberName":"U-component_of_WINDS"},"data":[0,0,0,0,0,0,0,0,0,0,0,0,0,0,0,0,0,0,0,0,0,0,0,0,0,0,0,0,0,0,0,0,0,0,0,0,0,0,0,0,0,0,0,0,0,0,0,0,0,0,0,0,0,0,0,0,0,0,1.5459,1.5458,0,1.5421,1.5421,1.542,1.5369,1.5368,1.5367,1.5366,1.5327,1.5326,1.5326,0,0,0,0,0,0,0,0,0,0,0,0,0,1.5487,1.5487,1.5459,1.5458,1.5458,1.5421,1.542,1.542,1.5369,1.5368,1.5367,1.5366,1.5327,1.5326,1.5326,0,0,0,0,0,0,0,0,0,0,0,0,0,1.5465,1.5487,1.5459,1.5428,1.5425,1.5421,1.542,1.542,1.5369,1.5368,1.5367,1.5366,1.5327,1.5326,1.5326,1.5349,0,0,1.5325,1.5325,0,0,0,0,0,0,0,0,1.5466,1.5464,1.5433,1.543,1.5427,1.5398,1.5416,1.5396,1.537,1.539,1.5366,1.5365,1.5351,1.5349,1.5345,1.5347,1.5345,1.5325,1.5324,1.5324,1.5324,0,0,0,0,0,0,0,1.5468,1.5465,1.5444,1.5433,1.5429,1.5416,1.5412,1.5412,1.5378,1.5388,1.5385,1.5381,1.5349,1.5345,1.5343,1.5345,1.5325,1.5324,1.5324,1.5324,1.5367,1.5368,0,0,0,0,0,0,1.5474,1.5467,1.5445,1.5443,1.5444,1.5417,1.5412,1.5409,1.5378,1.5373,1.5382,1.5379,1.5346,1.5344,1.5342,1.5368,1.5324,1.5324,1.5324,1.5365,1.5367,1.5369,0,0,0,0,0,0,1.5475,1.5473,1.5446,1.5454,1.5449,1.5418,1.5415,1.5409,1.5404,1.5374,1.5367,1.5384,1.5345,1.5342,1.5348,1.5366,1.5324,1.5323,1.5364,1.5366,1.5368,1.542,0,0,0,0,0,0,1.5476,1.5473,1.5481,1.5454,1.5449,1.5454,1.5416,1.5409,1.5404,1.5399,1.5373,1.5368,1.5344,1.5349,1.5348,1.5365,1.5323,1.5362,1.5365,1.5367,1.5417,1.5424,1.543,0,0,0,0,0,1.5477,1.5497,1.5482,1.548,1.5459,1.5455,1.5452,1.5424,1.5405,1.5414,1.5394,1.5369,1.5364,1.535,1.5348,1.5365,1.5361,1.5364,1.5367,1.5414,1.5422,1.543,0,0,0,0,0,0,1.5525,1.5492,1.5476,1.5487,1.5474,1.5446,1.5455,1.5434,1.5425,1.5421,1.5387,1.5382,1.5392,1.5379,1.5364,1.5387,1.5359,1.5362,1.5395,1.5403,1.5409,1.5412,1.5323,0,0,0,0,0,1.5538,1.5537,1.5508,1.5521,1.5516,1.5487,1.5484,1.5464,1.5449,1.5443,1.5424,1.541,1.5406,1.5404,1.5398,1.5415,1.5409,1.5426,1.5432,1.5438,1.5441,1.545,1.5458,1.5379,1.5379,1.5379,0,0,1.5562,1.5544,1.5546,1.5531,1.5518,1.5519,1.5483,1.5484,1.5484,1.5443,1.5448,1.5434,1.5417,1.5429,1.5433,1.5418,1.5462,1.5442,1.5446,1.5446,1.5454,1.5462,1.5469,1.5381,1.5381,1.538,0,0,1.5608,1.5594,1.5604,1.5593,1.5575,1.5556,1.5559,1.5535,1.5524,1.5529,1.5498,1.5498,1.5491,1.5481,1.5474,1.5519,1.5496,1.5518,1.5552,1.5562,1.5568,1.5574,1.5591,1.5597,1.5521,1.5521,1.5521,0,1.5641,1.5641,1.5612,1.5616,1.5611,1.5575,1.5586,1.5576,1.5557,1.5555,1.5539,1.553,1.5516,1.5526,1.5537,1.5533,1.5536,1.552,1.557,1.5575,1.5579,1.5595,1.5602,1.5524,1.5524,1.5523,1.5523,0,1.5683,1.5683,1.5694,1.5678,1.5673,1.5681,1.5654,1.5653,1.5635,1.5618,1.5624,1.5606,1.5597,1.5598,1.5579,1.5606,1.5597,1.5576,1.5547,1.559,1.5605,1.5611,1.5528,1.5527,1.5526,1.5526,0,0,1.5756,1.5726,1.573,1.5723,1.5702,1.5702,1.5709,1.5701,1.5701,1.569,1.5695,1.5692,1.5673,1.5666,1.5645,1.5654,1.5693,1.5632,1.5631,1.5645,1.5723,1.5739,1.5747,1.5677,1.5678,1.5679,1.5725,0,1.5798,1.5807,1.5783,1.5798,1.5799,1.5767,1.5773,1.5761,1.5746,1.5745,1.5728,1.5726,1.5701,1.5697,1.5704,1.5686,1.5708,1.5683,1.5682,1.5683,1.5688,1.5754,1.5771,1.5814,1.573,1.5731,1.5732,0,1.5847,1.584,1.5856,1.5837,1.5836,1.5842,1.5833,1.5833,1.5819,1.5808,1.5802,1.5779,1.5785,1.5758,1.5766,1.5749,1.5748,1.574,1.5741,1.574,1.571,1.5755,1.5827,1.5834,1.574,1.5739,1.5739,0,1.59,1.5895,1.5904,1.5899,1.5876,1.5881,1.5872,1.5857,1.5855,1.5847,1.5846,1.5839,1.5836,1.5832,1.5808,1.5791,1.582,1.579,1.5811,1.5812,1.5818,1.5818,1.5892,1.5817,1.5817,1.5817,1.5817,0,1.5949,1.5961,1.5928,1.5934,1.5946,1.5919,1.5932,1.5919,1.5907,1.591,1.5881,1.5885,1.5854,1.5855,1.5836,1.5847,1.5845,1.5837,1.5832,1.5839,1.5841,1.5838,1.5834,1.5819,1.5819,1.5818,1.5818,0,1.601,1.5988,1.5997,1.5975,1.597,1.598,1.5962,1.5967,1.5951,1.5956,1.5955,1.593,1.593,1.5907,1.5901,1.5889,1.5907,1.5896,1.5912,1.5908,1.5931,1.593,1.6005,1.6015,1.5934,1.5935,1.5936,0,1.6043,1.6051,1.6031,1.6032,1.6024,1.6025,1.6023,1.5997,1.5996,1.5983,1.599,1.5987,1.5984,1.5985,1.5966,1.5962,1.5952,1.5979,1.5951,1.5959,1.5953,1.5953,1.5954,1.5984,1.5985,1.5986,1.5987,0,1.6104,1.6093,1.6091,1.6087,1.6085,1.608,1.6073,1.6075,1.6046,1.6047,1.6047,1.6044,1.604,1.6038,1.6031,1.6022,1.6,1.5996,1.6001,1.6009,1.6018,1.6014,1.5928,1.5994,1.5994,1.5993,1.5993,1.5992,1.6152,1.6158,1.6146,1.6145,1.6138,1.6132,1.6137,1.6122,1.6122,1.6116,1.6101,1.6104,1.6093,1.6081,1.6074,1.6077,1.6063,1.607,1.6071,1.6073,1.6078,1.6018,1.6075,1.6075,1.6075,1.6075,1.6074,0,1.6212,1.6203,1.6203,1.6194,1.6195,1.6175,1.6167,1.6168,1.6171,1.6163,1.6161,1.6162,1.6161,1.6143,1.614,1.6146,1.6136,1.6146,1.6145,1.6144,1.609,1.6087,1.6154,1.6154,1.6154,1.6154,1.6154,1.6154,1.6243,1.6254,1.6242,1.6249,1.624,1.6243,1.6241,1.6236,1.6229,1.6232,1.6231,1.622,1.6208,1.6205,1.6204,1.6199,1.6199,1.6213,1.6205,1.6155,1.6147,1.614,1.6136,1.6213,1.6213,1.6258,1.6258,1.6259]},{"header":{"parameterUnit":"m.s-1","parameterCategory":1,"la1":30.2991,"la2":30.254,"lo1":-89.0895,"lo2":-89.0444,"dy":0.0017,"dx":0.0017,"nx":28,"ny":28,"refTime":"2025-01-17T03:00:00:Z","depth":0,"parameterNumber":3,"parameterNumberName":"V-component_of_WINDS"},"data":[0,0,0,0,0,0,0,0,0,0,0,0,0,0,0,0,0,0,0,0,0,0,0,0,0,0,0,0,0,0,0,0,0,0,0,0,0,0,0,0,0,0,0,0,0,0,0,0,0,0,0,0,0,0,0,0,0,0,-2.9347,-2.9347,0,-2.9326,-2.9326,-2.9326,-2.9338,-2.9339,-2.9339,-2.934,-2.9313,-2.9311,-2.931,0,0,0,0,0,0,0,0,0,0,0,0,0,-2.9392,-2.9391,-2.9347,-2.9347,-2.9347,-2.9326,-2.9326,-2.9326,-2.9338,-2.9339,-2.9339,-2.934,-2.9313,-2.9312,-2.931,0,0,0,0,0,0,0,0,0,0,0,0,0,-2.9372,-2.9391,-2.9347,-2.935,-2.935,-2.9326,-2.9326,-2.9326,-2.9338,-2.9339,-2.9339,-2.934,-2.9314,-2.9312,-2.931,-2.928,0,0,-2.9304,-2.9303,0,0,0,0,0,0,0,0,-2.9373,-2.937,-2.935,-2.935,-2.935,-2.9336,-2.9332,-2.931,-2.9337,-2.9342,-2.934,-2.9341,-2.9319,-2.9317,-2.9311,-2.9279,-2.9278,-2.9304,-2.9303,-2.9302,-2.9301,0,0,0,0,0,0,0,-2.9375,-2.9371,-2.9339,-2.935,-2.935,-2.9351,-2.9349,-2.9328,-2.9326,-2.9342,-2.9343,-2.934,-2.9319,-2.9313,-2.931,-2.9277,-2.9304,-2.9302,-2.9301,-2.93,-2.922,-2.9219,0,0,0,0,0,0,-2.9376,-2.9372,-2.9339,-2.9338,-2.9364,-2.935,-2.9348,-2.9339,-2.9326,-2.9325,-2.934,-2.9341,-2.9316,-2.9313,-2.9309,-2.9274,-2.9302,-2.93,-2.9299,-2.9221,-2.922,-2.9219,0,0,0,0,0,0,-2.9377,-2.9373,-2.934,-2.9356,-2.9351,-2.9348,-2.9339,-2.9338,-2.9332,-2.9325,-2.9324,-2.9334,-2.9316,-2.9312,-2.9288,-2.9274,-2.9299,-2.9297,-2.9222,-2.9221,-2.9219,-2.9204,0,0,0,0,0,0,-2.9379,-2.9374,-2.9363,-2.9355,-2.9351,-2.932,-2.9338,-2.9337,-2.9329,-2.9331,-2.9319,-2.9317,-2.9317,-2.9291,-2.9286,-2.9271,-2.9296,-2.9223,-2.9221,-2.922,-2.9205,-2.9202,-2.9199,0,0,0,0,0,-2.938,-2.9358,-2.9363,-2.9359,-2.9338,-2.932,-2.9317,-2.9318,-2.9328,-2.9317,-2.9312,-2.9318,-2.9276,-2.9288,-2.9283,-2.9268,-2.9224,-2.9222,-2.922,-2.9207,-2.9203,-2.9199,0,0,0,0,0,0,-2.9363,-2.9357,-2.9362,-2.9337,-2.9329,-2.9322,-2.9308,-2.9313,-2.93,-2.9302,-2.9302,-2.9299,-2.9274,-2.9268,-2.9282,-2.9238,-2.9251,-2.9248,-2.9243,-2.9239,-2.9236,-2.9238,-2.9294,0,0,0,0,0,-2.9356,-2.9344,-2.9339,-2.9317,-2.9313,-2.9311,-2.9303,-2.9305,-2.9296,-2.9292,-2.9285,-2.9274,-2.9259,-2.9248,-2.9234,-2.9204,-2.9202,-2.9191,-2.9188,-2.9185,-2.9182,-2.9167,-2.9163,-2.9212,-2.9212,-2.9212,0,0,-2.9342,-2.9338,-2.9329,-2.9314,-2.9308,-2.9293,-2.9308,-2.9292,-2.9281,-2.9288,-2.9266,-2.9261,-2.9249,-2.9222,-2.921,-2.9216,-2.9168,-2.9183,-2.918,-2.9179,-2.9164,-2.916,-2.9156,-2.921,-2.921,-2.9211,0,0,-2.931,-2.9305,-2.9287,-2.9281,-2.9273,-2.9272,-2.9267,-2.9259,-2.9257,-2.9235,-2.9241,-2.9226,-2.92,-2.9191,-2.9183,-2.9148,-2.9153,-2.9143,-2.9126,-2.9111,-2.9107,-2.9104,-2.9092,-2.9087,-2.914,-2.914,-2.914,0,-2.9293,-2.9273,-2.9277,-2.9261,-2.9254,-2.9262,-2.9244,-2.9237,-2.9223,-2.9217,-2.9225,-2.9192,-2.9184,-2.9157,-2.9148,-2.9141,-2.9136,-2.9145,-2.9108,-2.9104,-2.9101,-2.909,-2.9085,-2.9139,-2.9139,-2.9139,-2.914,0,-2.9253,-2.9239,-2.9226,-2.9215,-2.9206,-2.9188,-2.9188,-2.9179,-2.9181,-2.9179,-2.9156,-2.9147,-2.9132,-2.9125,-2.9126,-2.9097,-2.9101,-2.9108,-2.9122,-2.9095,-2.9085,-2.908,-2.9138,-2.9138,-2.9138,-2.9139,0,0,-2.9209,-2.9201,-2.9196,-2.9192,-2.9183,-2.9172,-2.9154,-2.9141,-2.9133,-2.9122,-2.9108,-2.9085,-2.9092,-2.9083,-2.9084,-2.907,-2.9044,-2.9079,-2.9079,-2.9073,-2.9012,-2.9007,-2.9002,-2.9047,-2.9046,-2.9046,-2.9013,0,-2.9177,-2.9149,-2.9152,-2.9125,-2.9112,-2.912,-2.9105,-2.9097,-2.9095,-2.9082,-2.9078,-2.9063,-2.9073,-2.9068,-2.9055,-2.905,-2.9032,-2.9052,-2.9032,-2.9032,-2.9036,-2.8997,-2.8991,-2.8961,-2.9009,-2.9008,-2.9008,0,-2.9136,-2.9127,-2.9099,-2.9093,-2.9088,-2.9074,-2.9063,-2.9051,-2.9042,-2.9041,-2.9032,-2.9035,-2.9016,-2.903,-2.9004,-2.9018,-2.9009,-2.9006,-2.9004,-2.9003,-2.9019,-2.8994,-2.8952,-2.8947,-2.9001,-2.9002,-2.9002,0,-2.9107,-2.9088,-2.9069,-2.9065,-2.9057,-2.9048,-2.9044,-2.9036,-2.9028,-2.9017,-2.9012,-2.8998,-2.899,-2.8979,-2.8977,-2.8987,-2.8951,-2.8965,-2.8949,-2.8949,-2.8941,-2.8942,-2.8897,-2.8935,-2.8935,-2.8935,-2.8935,0,-2.9071,-2.9054,-2.9057,-2.9045,-2.9026,-2.9029,-2.9009,-2.9006,-2.8999,-2.8986,-2.8991,-2.8978,-2.8977,-2.8963,-2.8962,-2.8941,-2.8937,-2.8935,-2.8935,-2.8935,-2.8935,-2.893,-2.8932,-2.8934,-2.8934,-2.8935,-2.8935,0,-2.9036,-2.9038,-2.9018,-2.9013,-2.9011,-2.8997,-2.8992,-2.8981,-2.8979,-2.8963,-2.8959,-2.8955,-2.894,-2.8938,-2.8918,-2.8917,-2.8892,-2.8894,-2.8896,-2.8897,-2.8881,-2.8883,-2.8832,-2.8825,-2.8867,-2.8867,-2.8867,0,-2.9014,-2.9001,-2.8996,-2.8988,-2.8985,-2.8972,-2.8965,-2.8967,-2.8959,-2.8948,-2.8937,-2.8923,-2.8912,-2.8886,-2.8881,-2.8866,-2.8868,-2.8851,-2.8866,-2.8866,-2.8868,-2.8869,-2.8868,-2.8848,-2.8848,-2.8847,-2.8847,0,-2.8974,-2.8975,-2.8965,-2.8956,-2.8947,-2.8939,-2.8931,-2.8924,-2.8925,-2.8915,-2.8901,-2.8892,-2.8874,-2.8859,-2.8845,-2.8839,-2.8843,-2.8843,-2.8839,-2.8839,-2.8841,-2.884,-2.8889,-2.8844,-2.8844,-2.8844,-2.8845,-2.8845,-2.8945,-2.8934,-2.8929,-2.8918,-2.8913,-2.8906,-2.8895,-2.8893,-2.8881,-2.8868,-2.887,-2.8853,-2.8845,-2.8827,-2.882,-2.8806,-2.8811,-2.8805,-2.8804,-2.8802,-2.8801,-2.8843,-2.8803,-2.8804,-2.8804,-2.8804,-2.8804,0,-2.8906,-2.8903,-2.8893,-2.8883,-2.8874,-2.888,-2.8872,-2.8864,-2.885,-2.8843,-2.8832,-2.8815,-2.8801,-2.8795,-2.8781,-2.8771,-2.8773,-2.8768,-2.8768,-2.8767,-2.8797,-2.8802,-2.8767,-2.8767,-2.8767,-2.8767,-2.8767,-2.8767,-2.8884,-2.8867,-2.8868,-2.8848,-2.8845,-2.8831,-2.8826,-2.8819,-2.8813,-2.8795,-2.8784,-2.8781,-2.8774,-2.876,-2.8747,-2.8745,-2.874,-2.8734,-2.8733,-2.8761,-2.8765,-2.8768,-2.8774,-2.8733,-2.8733,-2.8705,-2.8704,-2.8704]}]]